When you browse on this site, cookies collect data to enhance your experience and personalize the content and advertising you see.
Visit our Privacy Policy to learn more. By continuing to use the site, you agree to this use of cookies and data.
  • En España
  • Lista de países
  • Para 7 días
  • Temperatura del agua
  • Mapa Satelital
  • El tiempo en el mapa
  • Informadores
  • user-avatar
    Iniciar sesión

    Tiempo cada hora Kruhle

    Hoy, 19 Marzo, Martes

    Tiempo Temperatura Precipitaciones Viento Presión Humedad
    00:00 +3°C° 0 mm 3 mps 756 mmHg 84%
    01:00 +3°C° 0 mm 3 mps 756 mmHg 85%
    02:00 +3°C° 0 mm 2 mps 756 mmHg 86%
    03:00 +3°C° 0 mm 2 mps 756 mmHg 88%
    04:00 +3°C° 0 mm 2 mps 756 mmHg 89%
    05:00 +1°C° 0 mm 3 mps 756 mmHg 89%
    06:00 +1°C° 0 mm 3 mps 756 mmHg 90%
    07:00 +2°C° 0 mm 3 mps 756 mmHg 86%
    08:00 +3°C° 0 mm 3 mps 757 mmHg 82%
    09:00 +4°C° 0 mm 3 mps 757 mmHg 79%
    10:00 +6°C° 0 mm 4 mps 757 mmHg 72%
    11:00 +7°C° 0 mm 4 mps 757 mmHg 66%
    12:00 +10°C° 0 mm 4 mps 757 mmHg 59%
    13:00 +10°C° 0 mm 4 mps 757 mmHg 57%
    14:00 +11°C° 0 mm 4 mps 757 mmHg 54%
    15:00 +11°C° 0 mm 4 mps 756 mmHg 51%
    16:00 +11°C° 0 mm 3 mps 756 mmHg 53%
    17:00 +10°C° 0 mm 3 mps 756 mmHg 55%
    18:00 +10°C° 0 mm 2 mps 756 mmHg 57%
    19:00 +8°C° 0 mm 3 mps 756 mmHg 62%
    20:00 +7°C° 0 mm 3 mps 756 mmHg 66%
    21:00 +5°C° 0 mm 3 mps 756 mmHg 71%
    22:00 +5°C° 0 mm 3 mps 756 mmHg 73%
    23:00 +4°C° 0 mm 3 mps 756 mmHg 76%

    Mañana, 20 Marzo, Miércoles

    Tiempo Temperatura Precipitaciones Viento Presión Humedad
    00:00 +4°C° 0 mm 3 mps 756 mmHg 78%
    01:00 +4°C° 0 mm 2 mps 756 mmHg 80%
    02:00 +4°C° 0 mm 2 mps 756 mmHg 81%
    03:00 +3°C° 0 mm 2 mps 757 mmHg 83%
    04:00 +3°C° 0 mm 2 mps 756 mmHg 84%
    05:00 +3°C° 0 mm 2 mps 756 mmHg 85%
    06:00 +2°C° 0 mm 2 mps 756 mmHg 86%
    07:00 +3°C° 0 mm 2 mps 756 mmHg 81%
    08:00 +5°C° 0 mm 2 mps 757 mmHg 77%
    09:00 +6°C° 0 mm 2 mps 757 mmHg 72%
    10:00 +7°C° 0 mm 2 mps 756 mmHg 66%
    11:00 +8°C° 0 mm 2 mps 756 mmHg 60%
    12:00 +10°C° 0 mm 2 mps 756 mmHg 54%
    13:00 +12°C° 0 mm 2 mps 756 mmHg 52%
    14:00 +12°C° 0 mm 2 mps 756 mmHg 49%
    15:00 +13°C° 0 mm 1 mps 755 mmHg 46%
    16:00 +13°C° 0 mm 1 mps 755 mmHg 48%
    17:00 +12°C° 0 mm 1 mps 755 mmHg 51%
    18:00 +12°C° 0 mm 1 mps 755 mmHg 54%
    19:00 +11°C° 0 mm 1 mps 755 mmHg 57%
    20:00 +10°C° 0 mm 1 mps 755 mmHg 60%
    21:00 +9°C° 0 mm 1 mps 755 mmHg 64%
    22:00 +8°C° 0 mm 2 mps 755 mmHg 70%
    23:00 +7°C° 0 mm 3 mps 755 mmHg 77%

    Pasado mañana, 21 Marzo, Jueves

    Tiempo Temperatura Precipitaciones Viento Presión Humedad
    00:00 +5°C° 0 mm 3 mps 755 mmHg 83%
    01:00 +5°C° 0 mm 4 mps 755 mmHg 84%
    02:00 +4°C° 0 mm 4 mps 755 mmHg 85%
    03:00 +4°C° 0 mm 4 mps 755 mmHg 85%
    04:00 +3°C° 0 mm 4 mps 755 mmHg 85%
    05:00 +3°C° 0 mm 3 mps 755 mmHg 84%
    06:00 +3°C° 0 mm 3 mps 755 mmHg 83%
    07:00 +3°C° 0 mm 3 mps 755 mmHg 79%
    08:00 +4°C° 0 mm 3 mps 756 mmHg 75%
    09:00 +4°C° 0 mm 3 mps 756 mmHg 71%
    10:00 +5°C° 0 mm 4 mps 756 mmHg 64%
    11:00 +6°C° 0 mm 4 mps 755 mmHg 57%
    12:00 +7°C° 0 mm 4 mps 755 mmHg 50%
    13:00 +7°C° 0 mm 5 mps 755 mmHg 49%
    14:00 +7°C° 0 mm 5 mps 754 mmHg 47%
    15:00 +7°C° 0 mm 6 mps 754 mmHg 46%
    16:00 +7°C° 0 mm 6 mps 754 mmHg 49%
    17:00 +6°C° 0 mm 5 mps 753 mmHg 52%
    18:00 +5°C° 0 mm 5 mps 753 mmHg 55%
    19:00 +5°C° 0 mm 5 mps 754 mmHg 60%
    20:00 +3°C° 0 mm 5 mps 754 mmHg 65%
    21:00 +3°C° 0 mm 5 mps 754 mmHg 70%
    22:00 +2°C° 0 mm 5 mps 754 mmHg 70%
    23:00 +2°C° 0 mm 5 mps 754 mmHg 70%

    22 Marzo, Viernes

    Tiempo Temperatura Precipitaciones Viento Presión Humedad
    00:00 +3°C° 0 mm 4 mps 754 mmHg 70%
    01:00 +1°C° 0 mm 4 mps 754 mmHg 73%
    02:00 +1°C° 0 mm 4 mps 754 mmHg 75%
    03:00 0°C° 0 mm 4 mps 754 mmHg 78%
    04:00 -1°C° 0 mm 4 mps 754 mmHg 80%
    05:00 -1°C° 0 mm 4 mps 754 mmHg 81%
    06:00 0°C° 0 mm 3 mps 754 mmHg 83%
    07:00 0°C° 0 mm 4 mps 754 mmHg 77%
    08:00 +1°C° 0 mm 4 mps 754 mmHg 70%
    09:00 +4°C° 0 mm 4 mps 755 mmHg 64%
    10:00 +5°C° 0 mm 5 mps 754 mmHg 61%
    11:00 +6°C° 0 mm 5 mps 754 mmHg 59%
    12:00 +7°C° 0 mm 6 mps 753 mmHg 56%
    13:00 +8°C° 0 mm 6 mps 753 mmHg 57%
    14:00 +8°C° 0 mm 6 mps 752 mmHg 58%
    15:00 +8°C° 0 mm 6 mps 751 mmHg 60%
    16:00 +7°C° 0 mm 6 mps 751 mmHg 64%
    17:00 +6°C° 0 mm 7 mps 750 mmHg 69%
    18:00 +6°C° 0 mm 7 mps 750 mmHg 74%
    19:00 +5°C° 0 mm 7 mps 749 mmHg 78%
    20:00 +5°C° 0 mm 7 mps 749 mmHg 81%
    21:00 +5°C° 0 mm 7 mps 749 mmHg 85%
    22:00 +5°C° 0.1 mm 7 mps 749 mmHg 82%
    23:00 +5°C° 0.1 mm 6 mps 748 mmHg 80%

    23 Marzo, Sábado

    Tiempo Temperatura Precipitaciones Viento Presión Humedad
    00:00 +5°C° 0.1 mm 6 mps 748 mmHg 77%
    01:00 +3°C° 0 mm 6 mps 748 mmHg 75%
    02:00 +2°C° 0 mm 5 mps 748 mmHg 73%
    03:00 +1°C° 0 mm 5 mps 748 mmHg 71%
    04:00 0°C° 0 mm 5 mps 749 mmHg 72%
    05:00 -2°C° 0 mm 6 mps 749 mmHg 74%
    06:00 -2°C° 0 mm 6 mps 749 mmHg 75%
    07:00 -2°C° 0 mm 7 mps 750 mmHg 72%
    08:00 -1°C° 0 mm 7 mps 750 mmHg 70%
    09:00 -1°C° 0 mm 8 mps 750 mmHg 67%
    10:00 0°C° 0 mm 8 mps 751 mmHg 64%
    11:00 0°C° 0 mm 7 mps 751 mmHg 61%
    12:00 +2°C° 0 mm 7 mps 751 mmHg 58%
    13:00 +2°C° 0 mm 7 mps 751 mmHg 58%
    14:00 +2°C° 0 mm 7 mps 751 mmHg 57%
    15:00 +3°C° 0 mm 7 mps 752 mmHg 57%
    16:00 +2°C° 0 mm 6 mps 752 mmHg 58%
    17:00 +2°C° 0 mm 6 mps 752 mmHg 59%
    18:00 +2°C° 0 mm 5 mps 752 mmHg 61%
    19:00 +1°C° 0 mm 5 mps 753 mmHg 65%
    20:00 0°C° 0 mm 4 mps 753 mmHg 70%
    21:00 0°C° 0 mm 3 mps 754 mmHg 75%
    22:00 0°C° 0 mm 3 mps 754 mmHg 77%
    23:00 -1°C° 0 mm 3 mps 754 mmHg 79%

    24 Marzo, Domingo

    Tiempo Temperatura Precipitaciones Viento Presión Humedad
    00:00 -1°C° 0 mm 2 mps 754 mmHg 81%
    01:00 -1°C° 0 mm 2 mps 754 mmHg 81%
    02:00 -1°C° 0 mm 2 mps 754 mmHg 81%
    03:00 -1°C° 0 mm 2 mps 754 mmHg 82%
    04:00 -1°C° 0 mm 2 mps 753 mmHg 83%
    05:00 -1°C° 0 mm 3 mps 753 mmHg 83%
    06:00 -1°C° 0 mm 3 mps 753 mmHg 84%
    07:00 0°C° 0 mm 3 mps 753 mmHg 79%
    08:00 +1°C° 0 mm 4 mps 753 mmHg 73%
    09:00 +3°C° 0 mm 4 mps 753 mmHg 68%
    10:00 +5°C° 0 mm 5 mps 752 mmHg 67%
    11:00 +6°C° 0 mm 5 mps 752 mmHg 66%
    12:00 +8°C° 0 mm 6 mps 752 mmHg 65%
    13:00 +7°C° 0.2 mm 5 mps 752 mmHg 72%
    14:00 +7°C° 0.2 mm 5 mps 751 mmHg 79%
    15:00 +7°C° 0.2 mm 5 mps 751 mmHg 86%
    16:00 +7°C° 0 mm 4 mps 751 mmHg 85%
    17:00 +7°C° 0 mm 4 mps 751 mmHg 83%
    18:00 +7°C° 0 mm 4 mps 751 mmHg 82%
    19:00 +7°C° 0 mm 3 mps 752 mmHg 85%
    20:00 +5°C° 0 mm 3 mps 752 mmHg 87%
    21:00 +6°C° 0 mm 2 mps 752 mmHg 90%
    22:00 +5°C° 0 mm 2 mps 752 mmHg 89%
    23:00 +4°C° 0 mm 2 mps 753 mmHg 87%
    Mostrar más